When you browse on this site, cookies collect data to enhance your experience and personalize the content and advertising you see.
Visit our Privacy Policy to learn more. By continuing to use the site, you agree to this use of cookies and data.
  • Em Portugal
  • Lista de países
  • Para 7 dias
  • Temperatura da água
  • Mapas de satélite
  • Mapa do tempo
  • Widgets de tempo
  • user-avatar
    Iniciar Sessão

    Previsão horária em Pasternik

    Hoje, 21 Fevereiro, Quinta-feira

    Tempo Temperatura Precipitação Vento Pressão Humidade
    00:00 +4°C° 0 mm 3 m/s 755 mmHg 82%
    01:00 +4°C° 0 mm 3 m/s 755 mmHg 83%
    02:00 +4°C° 0 mm 3 m/s 755 mmHg 84%
    03:00 +3°C° 0 mm 3 m/s 755 mmHg 85%
    04:00 +3°C° 0 mm 3 m/s 755 mmHg 85%
    05:00 +3°C° 0 mm 3 m/s 755 mmHg 86%
    06:00 +3°C° 0 mm 3 m/s 755 mmHg 86%
    07:00 +3°C° 0 mm 4 m/s 755 mmHg 86%
    08:00 +4°C° 0 mm 4 m/s 755 mmHg 83%
    09:00 +5°C° 0 mm 4 m/s 755 mmHg 79%
    10:00 +6°C° 0 mm 5 m/s 755 mmHg 75%
    11:00 +6°C° 0.3 mm 5 m/s 754 mmHg 74%
    12:00 +6°C° 0.3 mm 5 m/s 754 mmHg 74%
    13:00 +6°C° 0.3 mm 5 m/s 754 mmHg 73%
    14:00 +7°C° 0.1 mm 5 m/s 754 mmHg 72%
    15:00 +7°C° 0.1 mm 5 m/s 754 mmHg 71%
    16:00 +7°C° 0.1 mm 5 m/s 754 mmHg 69%
    17:00 +7°C° 0 mm 5 m/s 753 mmHg 72%
    18:00 +7°C° 0 mm 5 m/s 753 mmHg 76%
    19:00 +7°C° 0 mm 5 m/s 753 mmHg 79%
    20:00 +7°C° 0.3 mm 5 m/s 753 mmHg 83%
    21:00 +6°C° 0.3 mm 5 m/s 753 mmHg 86%
    22:00 +6°C° 0.3 mm 5 m/s 753 mmHg 90%
    23:00 +6°C° 0.9 mm 5 m/s 753 mmHg 91%

    Amanhã, 22 Fevereiro, Sexta-feira

    Tempo Temperatura Precipitação Vento Pressão Humidade
    00:00 +7°C° 0.9 mm 5 m/s 753 mmHg 91%
    01:00 +7°C° 0.9 mm 5 m/s 753 mmHg 92%
    02:00 +7°C° 0.9 mm 5 m/s 753 mmHg 92%
    03:00 +6°C° 0.9 mm 5 m/s 753 mmHg 92%
    04:00 +6°C° 0.9 mm 5 m/s 753 mmHg 91%
    05:00 +6°C° 0.2 mm 5 m/s 754 mmHg 89%
    06:00 +4°C° 0.2 mm 6 m/s 755 mmHg 87%
    07:00 +3°C° 0.2 mm 6 m/s 756 mmHg 85%
    08:00 +2°C° 0 mm 5 m/s 758 mmHg 82%
    09:00 +1°C° 0 mm 5 m/s 759 mmHg 80%
    10:00 0°C° 0 mm 5 m/s 760 mmHg 77%
    11:00 0°C° 0 mm 4 m/s 761 mmHg 72%
    12:00 +1°C° 0 mm 4 m/s 761 mmHg 66%
    13:00 +2°C° 0 mm 3 m/s 762 mmHg 61%
    14:00 +2°C° 0 mm 3 m/s 762 mmHg 58%
    15:00 +2°C° 0 mm 3 m/s 763 mmHg 55%
    16:00 +2°C° 0 mm 3 m/s 763 mmHg 52%
    17:00 +1°C° 0 mm 3 m/s 764 mmHg 56%
    18:00 +1°C° 0 mm 2 m/s 765 mmHg 60%
    19:00 -1°C° 0 mm 2 m/s 765 mmHg 65%
    20:00 -1°C° 0 mm 2 m/s 766 mmHg 65%
    21:00 -2°C° 0 mm 2 m/s 766 mmHg 65%
    22:00 -2°C° 0 mm 2 m/s 767 mmHg 66%
    23:00 -2°C° 0 mm 2 m/s 767 mmHg 64%

    Depois de amanhã, 23 Fevereiro, Sábado

    Tempo Temperatura Precipitação Vento Pressão Humidade
    00:00 -2°C° 0 mm 2 m/s 767 mmHg 63%
    01:00 -3°C° 0 mm 2 m/s 767 mmHg 61%
    02:00 -3°C° 0 mm 2 m/s 767 mmHg 60%
    03:00 -1°C° 0 mm 1 m/s 767 mmHg 59%
    04:00 -1°C° 0 mm 1 m/s 767 mmHg 58%
    05:00 -1°C° 0 mm 1 m/s 767 mmHg 58%
    06:00 -1°C° 0 mm 1 m/s 767 mmHg 59%
    07:00 -3°C° 0 mm 2 m/s 767 mmHg 59%
    08:00 -2°C° 0 mm 2 m/s 767 mmHg 53%
    09:00 -1°C° 0 mm 2 m/s 768 mmHg 47%
    10:00 -1°C° 0 mm 2 m/s 768 mmHg 40%
    11:00 +1°C° 0 mm 2 m/s 768 mmHg 36%
    12:00 +2°C° 0 mm 2 m/s 768 mmHg 32%
    13:00 +3°C° 0 mm 2 m/s 767 mmHg 28%
    14:00 +3°C° 0 mm 2 m/s 767 mmHg 29%
    15:00 +3°C° 0 mm 2 m/s 767 mmHg 29%
    16:00 +3°C° 0 mm 2 m/s 767 mmHg 30%
    17:00 +2°C° 0 mm 2 m/s 767 mmHg 34%
    18:00 +2°C° 0 mm 1 m/s 766 mmHg 37%
    19:00 +1°C° 0 mm 1 m/s 766 mmHg 41%
    20:00 +1°C° 0 mm 1 m/s 766 mmHg 41%
    21:00 +1°C° 0 mm 1 m/s 766 mmHg 41%
    22:00 0°C° 0 mm 1 m/s 766 mmHg 41%
    23:00 +1°C° 0 mm 1 m/s 766 mmHg 40%

    24 Fevereiro, Domingo

    Tempo Temperatura Precipitação Vento Pressão Humidade
    00:00 +1°C° 0 mm 1 m/s 766 mmHg 39%
    01:00 +1°C° 0 mm 1 m/s 766 mmHg 38%
    02:00 0°C° 0 mm 0 m/s 766 mmHg 38%
    03:00 0°C° 0 mm 0 m/s 765 mmHg 37%
    04:00 0°C° 0 mm 0 m/s 765 mmHg 36%
    05:00 0°C° 0 mm 0 m/s 765 mmHg 36%
    06:00 0°C° 0 mm 0 m/s 765 mmHg 36%
    07:00 +1°C° 0 mm 1 m/s 765 mmHg 36%
    08:00 +2°C° 0 mm 1 m/s 765 mmHg 34%
    09:00 +4°C° 0 mm 1 m/s 765 mmHg 33%
    10:00 +6°C° 0 mm 1 m/s 765 mmHg 31%
    11:00 +6°C° 0 mm 2 m/s 764 mmHg 32%
    12:00 +7°C° 0 mm 2 m/s 764 mmHg 33%
    13:00 +8°C° 0 mm 2 m/s 764 mmHg 34%
    14:00 +8°C° 0 mm 2 m/s 763 mmHg 40%
    15:00 +7°C° 0 mm 2 m/s 763 mmHg 45%
    16:00 +7°C° 0 mm 2 m/s 762 mmHg 50%
    17:00 +5°C° 0 mm 3 m/s 762 mmHg 56%
    18:00 +4°C° 0 mm 3 m/s 762 mmHg 61%
    19:00 +2°C° 0 mm 3 m/s 762 mmHg 66%
    20:00 +2°C° 0 mm 3 m/s 762 mmHg 68%
    21:00 +2°C° 0 mm 3 m/s 762 mmHg 70%
    22:00 +1°C° 0 mm 4 m/s 762 mmHg 72%
    23:00 +2°C° 0 mm 3 m/s 762 mmHg 75%

    25 Fevereiro, Segunda-feira

    Tempo Temperatura Precipitação Vento Pressão Humidade
    00:00 +1°C° 0 mm 3 m/s 762 mmHg 79%
    01:00 +1°C° 0 mm 3 m/s 762 mmHg 82%
    02:00 +1°C° 0 mm 3 m/s 762 mmHg 86%
    03:00 +1°C° 0 mm 3 m/s 762 mmHg 89%
    04:00 +2°C° 0 mm 2 m/s 762 mmHg 93%
    05:00 +2°C° 0 mm 2 m/s 763 mmHg 94%
    06:00 +3°C° 0 mm 2 m/s 763 mmHg 96%
    07:00 +3°C° 0 mm 2 m/s 763 mmHg 97%
    08:00 +4°C° 0 mm 2 m/s 764 mmHg 93%
    09:00 +4°C° 0 mm 2 m/s 764 mmHg 89%
    10:00 +5°C° 0 mm 2 m/s 765 mmHg 85%
    11:00 +6°C° 0 mm 2 m/s 765 mmHg 76%
    12:00 +7°C° 0 mm 2 m/s 765 mmHg 67%
    13:00 +9°C° 0 mm 2 m/s 765 mmHg 58%
    14:00 +9°C° 0 mm 2 m/s 765 mmHg 56%
    15:00 +9°C° 0 mm 2 m/s 765 mmHg 55%
    16:00 +9°C° 0 mm 2 m/s 764 mmHg 53%
    17:00 +8°C° 0 mm 2 m/s 764 mmHg 58%
    18:00 +6°C° 0 mm 2 m/s 764 mmHg 62%
    19:00 +6°C° 0 mm 1 m/s 764 mmHg 67%
    20:00 +4°C° 0 mm 2 m/s 764 mmHg 70%
    21:00 +4°C° 0 mm 2 m/s 764 mmHg 73%
    22:00 +3°C° 0 mm 2 m/s 764 mmHg 76%
    23:00 +3°C° 0 mm 2 m/s 763 mmHg 79%

    26 Fevereiro, Terça-feira

    Tempo Temperatura Precipitação Vento Pressão Humidade
    00:00 +3°C° 0 mm 2 m/s 763 mmHg 83%
    01:00 +2°C° 0 mm 2 m/s 763 mmHg 86%
    02:00 +2°C° 0 mm 2 m/s 762 mmHg 87%
    03:00 +1°C° 0 mm 3 m/s 761 mmHg 87%
    04:00 +1°C° 0 mm 3 m/s 761 mmHg 87%
    05:00 +1°C° 0 mm 3 m/s 761 mmHg 86%
    06:00 +1°C° 0 mm 3 m/s 760 mmHg 84%
    07:00 +1°C° 0 mm 3 m/s 760 mmHg 83%
    08:00 +1°C° 0 mm 4 m/s 760 mmHg 79%
    09:00 +3°C° 0 mm 4 m/s 759 mmHg 76%
    10:00 +5°C° 0 mm 5 m/s 759 mmHg 72%
    11:00 +6°C° 0 mm 5 m/s 759 mmHg 67%
    12:00 +8°C° 0 mm 5 m/s 758 mmHg 63%
    13:00 +9°C° 0 mm 5 m/s 758 mmHg 58%
    14:00 +9°C° 0 mm 5 m/s 757 mmHg 58%
    15:00 +10°C° 0 mm 5 m/s 757 mmHg 58%
    16:00 +10°C° 0 mm 6 m/s 756 mmHg 58%
    17:00 +9°C° 0 mm 5 m/s 756 mmHg 63%
    18:00 +8°C° 0 mm 5 m/s 756 mmHg 68%
    19:00 +7°C° 0 mm 5 m/s 756 mmHg 73%
    20:00 +6°C° 0 mm 5 m/s 756 mmHg 76%
    21:00 +6°C° 0 mm 4 m/s 756 mmHg 78%
    22:00 +6°C° 0 mm 4 m/s 756 mmHg 80%
    23:00 +5°C° 0 mm 4 m/s 756 mmHg 83%
    Mostrar mais